Wind_Speed
21 18 21 17 11 7 14 16 14 14 15 24 30 35 34 42 42 41 38 35 36 33 34 34 30 26 25 28 27 22 22 24 22 23 16 12 7 10 8 8 14 2 8 12 17 24 28 25 31
20 20 22 22 22 14 8 13 13 10 12 15 23 30 35 39 47 45 40 37 35 36 35 35 31 27 24 25 30 24 26 21 25 24 20 10 12 18 13 11 7 1 7 8 14 20 21 27 27
17 18 18 18 21 23 20 12 6 7 11 10 17 23 27 36 43 48 44 44 41 34 38 37 34 30 28 26 25 22 24 22 21 23 24 21 17 18 15 9 16 6 5 8 13 16 21 20 22
11 10 11 11 15 18 19 19 18 12 5 5 10 16 20 25 33 44 43 41 44 43 39 39 35 30 26 29 31 30 27 28 26 20 20 23 16 18 18 15 17 5 3 7 14 15 20 19 23
11 10 14 6 11 15 15 14 15 14 12 8 3 9 14 21 24 30 40 42 44 45 43 40 41 40 36 32 29 30 31 31 28 28 22 30 27 24 19 19 24 8 3 12 15 15 20 13 21
9 10 12 7 13 15 15 12 10 9 8 9 7 2 11 18 23 24 25 31 38 43 39 41 36 36 34 38 35 25 25 31 31 27 22 23 25 20 14 19 22 12 11 8 18 23 20 15 22
16 16 13 11 15 15 13 11 9 8 8 8 8 5 2 10 21 26 27 27 32 38 38 39 37 30 35 37 37 34 30 29 30 30 28 24 24 16 10 22 25 17 13 13 16 19 17 16 18
18 18 17 16 14 15 14 13 10 8 8 7 8 9 7 7 9 19 26 30 32 35 42 41 45 43 41 41 39 40 34 33 33 34 27 26 28 23 22 26 26 22 22 17 25 23 14 18 23
20 19 20 19 17 15 15 13 12 10 7 5 8 8 9 6 7 12 18 23 32 36 38 41 41 43 46 43 42 42 41 41 37 39 40 38 28 24 28 28 23 30 27 21 17 16 14 18 13
21 21 20 20 19 17 16 16 15 12 10 8 6 7 11 12 3 9 13 17 26 31 34 36 46 37 37 31 43 48 42 35 39 41 39 39 36 34 37 37 34 25 18 17 14 14 16 13 14
21 22 21 21 19 18 18 17 16 14 12 9 8 7 9 12 12 6 11 14 18 23 30 36 40 47 37 33 33 31 34 33 31 35 37 42 36 35 36 30 34 30 22 19 22 23 18 14 19
21 21 20 19 19 19 18 18 17 16 13 11 8 7 5 7 11 10 6 8 11 15 19 24 30 42 48 44 31 25 23 25 29 36 36 36 38 38 38 39 32 29 29 31 28 24 25 24 27
21 21 21 21 20 19 19 18 17 16 14 13 10 6 4 3 4 8 8 7 6 7 8 14 21 25 36 39 31 25 25 25 24 30 34 39 40 38 39 41 42 43 37 33 33 35 38 32 35
24 23 24 23 22 21 19 18 17 16 13 13 12 10 7 4 2 3 5 7 8 6 7 6 11 19 22 23 28 26 27 27 26 28 34 35 40 40 40 39 39 36 39 41 42 40 36 38 33
29 25 24 24 25 23 21 18 15 16 16 12 12 11 11 9 5 1 3 2 5 6 7 3 4 11 18 22 25 25 28 29 30 33 37 38 42 39 39 39 33 39 42 39 38 38 43 40 32
30 26 23 24 25 26 23 19 16 14 14 15 13 13 12 12 11 8 3 3 4 1 2 4 4 0 9 15 20 24 23 23 25 29 32 39 43 41 42 38 36 35 34 35 40 35 35 35 35
29 29 28 24 24 26 26 21 17 14 12 12 14 13 13 13 10 10 11 6 5 6 4 2 2 1 2 6 11 12 16 19 20 21 20 22 27 42 49 43 38 42 44 45 44 46 44 45 42
25 30 31 30 28 28 29 24 23 22 18 14 13 14 14 14 13 9 10 11 10 8 7 7 7 7 5 5 7 11 14 17 18 20 23 24 26 28 31 31 27 27 27 43 48 45 41 44 44
21 26 30 32 29 28 28 27 22 23 24 21 16 12 11 12 14 14 10 9 11 11 9 9 9 8 6 8 8 9 12 17 20 22 24 27 30 29 30 33 32 32 29 25 31 39 44 46 46
21 23 26 30 31 29 27 26 26 23 22 23 22 20 16 14 14 14 13 11 9 10 13 13 10 11 12 10 10 11 12 12 13 15 18 21 24 29 29 32 32 33 36 34 34 32 39 34 41
23 23 25 27 30 30 29 25 25 25 24 22 23 23 22 19 15 12 12 13 12 9 11 15 16 16 16 14 14 14 15 16 15 16 19 20 21 24 28 32 34 36 38 36 36 40 40 38 41
22 25 25 28 29 32 29 29 26 24 23 22 20 21 21 21 20 17 15 14 14 10 11 13 15 18 21 20 19 20 20 23 23 24 23 23 23 25 26 28 32 31 31 36 38 39 40 41 41
22 26 26 27 30 32 33 32 29 26 23 21 21 21 20 20 21 19 18 16 12 11 10 13 15 18 21 24 25 25 25 25 27 28 29 29 30 29 31 31 32 33 30 31 34 36 40 40 44
22 25 27 27 29 32 34 35 36 31 28 25 23 22 21 21 17 17 18 19 19 19 19 20 21 22 24 25 26 27 28 29 31 32 32 32 33 34 34 35 36 39 37 38 37 38 39 40 41
22 24 27 27 28 30 33 35 37 38 32 28 26 24 22 19 19 20 20 20 22 22 23 24 27 29 30 31 32 32 31 32 32 33 33 33 34 35 36 38 39 41 42 42 42 41 41 41 43
24 26 28 28 29 30 31 34 37 40 39 37 33 28 25 23 23 20 20 22 23 24 25 27 30 32 33 33 33 33 33 34 33 33 32 33 33 34 36 37 39 42 43 44 43 44 44 43 43
29 29 31 30 31 32 33 34 35 41 43 41 40 37 34 31 31 29 25 24 25 26 26 28 30 32 34 37 38 36 36 37 35 35 37 38 40 41 41 41 42 44 44 45 46 47 47 46 47
32 32 33 32 32 34 35 35 37 41 44 45 45 44 40 38 37 35 34 34 33 33 35 36 35 35 37 39 41 43 44 45 46 45 45 45 46 46 47 48 49 49 48 48 49 50 52 53 53
37 37 36 35 34 36 37 37 39 42 45 46 46 44 44 42 42 42 41 40 40 41 41 40 43 44 43 45 46 47 49 52 54 51 52 53 54 55 56 57 56 56 56 56 56 55 57 57 57
40 41 40 39 38 37 39 41 43 45 47 48 48 47 48 46 46 46 47 47 47 49 48 47 47 47 49 50 50 52 53 54 54 56 61 64 63 64 64 66 66 66 67 67 64 61 60 61 64
Wind_Direction
76 71 61 54 55 137 173 171 177 184 187 205 215 214 213 208 207 206 207 209 212 214 214 217 231 238 248 249 253 252 244 248 244 232 218 239 224 271 310 331 291 23 73 34 22 23 10 24 28
87 73 68 64 64 75 116 178 186 204 194 199 209 214 215 211 208 210 212 213 213 216 217 225 234 243 243 251 253 251 234 232 232 225 215 245 255 254 291 305 267 159 89 33 23 18 25 7 20
79 86 83 73 70 64 73 84 131 152 177 188 200 207 214 216 212 213 216 216 215 215 215 225 235 243 243 252 243 242 229 228 223 213 220 236 245 258 256 263 278 199 79 29 17 13 13 12 21
44 52 57 81 81 73 58 59 72 90 117 153 170 184 196 211 215 218 216 218 218 219 219 224 236 239 235 235 246 245 242 241 223 218 223 242 247 252 245 261 264 264 291 356 355 16 16 5 17
31 11 353 22 74 70 57 43 43 43 53 70 170 214 205 202 208 211 214 217 216 221 219 216 234 238 238 239 249 248 248 249 234 226 234 227 247 256 250 251 248 231 280 296 320 330 358 1 5
24 23 6 358 58 59 55 41 38 35 29 30 33 58 220 220 209 203 213 207 208 215 217 217 223 234 234 238 239 248 253 248 249 228 234 240 241 242 250 238 240 236 255 288 305 308 333 336 349
42 42 14 31 53 48 49 44 39 35 31 21 18 12 317 234 228 227 222 209 210 206 208 205 197 205 225 234 231 235 241 239 241 243 233 250 249 237 228 240 255 242 268 284 299 319 342 324 344
47 40 37 39 47 50 42 34 29 30 29 11 11 14 358 331 252 233 224 211 206 206 205 206 210 212 215 227 229 225 225 227 237 235 234 229 233 225 206 257 246 257 273 284 293 308 315 319 325
41 38 37 34 34 41 38 33 27 25 26 27 13 10 27 10 244 228 227 217 208 210 213 207 213 218 223 221 226 229 234 238 239 241 242 242 238 234 223 233 262 262 264 274 290 288 283 313 306
31 30 33 30 28 23 29 27 24 22 22 21 16 27 42 46 74 202 197 211 210 211 210 211 216 214 220 229 235 239 245 244 242 245 244 248 253 241 247 240 242 253 256 264 261 273 290 294 286
33 27 24 24 22 22 18 21 19 18 15 16 8 11 41 50 63 105 165 190 203 201 208 218 218 220 218 225 230 235 239 242 238 235 241 244 249 242 243 240 247 248 252 242 252 271 279 267 283
30 28 24 22 16 12 11 10 8 9 7 2 9 1 357 46 56 65 106 152 170 193 208 211 214 221 220 224 228 232 237 239 243 234 227 239 241 250 246 241 247 257 259 258 262 273 271 271 287
28 24 20 17 13 9 2 355 353 351 350 355 356 359 339 341 36 66 79 110 165 185 185 206 213 217 221 226 229 231 238 236 236 230 228 232 240 246 246 249 254 255 257 261 268 275 281 272 288
29 20 16 11 9 4 0 355 343 339 339 339 342 345 341 335 325 2 71 90 92 117 189 188 197 198 202 218 231 233 233 229 227 225 228 237 243 248 249 254 256 260 265 270 272 275 267 280 290
26 18 12 7 7 7 5 356 343 330 327 326 325 329 333 338 339 341 329 35 80 78 70 84 193 195 204 214 218 230 235 233 233 229 223 226 236 238 251 253 257 268 266 269 269 272 273 268 269
22 22 15 9 10 8 6 0 350 333 318 315 319 319 325 329 332 330 313 289 311 21 61 65 47 264 212 207 218 221 227 232 239 241 240 234 232 242 245 245 257 253 249 252 252 249 255 256 258
18 19 18 14 12 11 11 11 10 358 342 327 319 318 320 321 324 323 324 309 263 280 300 282 234 150 255 243 233 230 230 234 239 241 242 246 248 241 241 240 244 241 235 238 237 243 252 256 260
10 15 15 13 11 10 14 15 19 21 17 5 349 333 328 321 322 327 315 312 302 270 276 292 293 271 249 247 249 245 242 241 247 248 250 250 252 253 248 245 255 257 265 244 243 248 248 244 242
357 4 11 8 10 10 11 16 18 23 24 20 11 3 348 335 324 323 316 306 300 291 279 271 275 272 283 265 245 236 240 245 248 249 251 249 252 249 244 251 255 257 257 251 255 250 247 248 252
345 350 359 5 6 9 8 12 17 17 15 17 15 9 3 352 338 328 326 319 309 296 290 279 267 265 263 263 264 260 255 248 253 257 256 257 256 252 256 255 255 257 261 255 256 253 246 255 253
344 339 346 355 1 6 6 8 12 15 16 13 10 6 4 5 359 351 338 328 316 294 281 275 268 261 264 266 271 275 271 267 268 272 274 273 271 263 262 262 262 263 265 260 257 252 248 255 255
335 337 337 342 351 360 2 4 7 9 11 13 9 1 2 360 356 355 356 341 316 297 283 274 269 267 265 270 270 272 271 270 273 273 272 269 264 268 265 263 263 263 265 264 262 259 256 256 252
321 328 334 334 339 347 355 1 359 359 2 3 5 3 356 358 352 345 333 329 323 312 295 284 279 270 267 267 269 269 270 273 274 274 273 273 274 272 273 269 268 263 262 267 264 260 260 260 255
307 321 324 326 329 336 344 352 353 354 353 354 353 357 358 355 350 337 328 325 323 316 305 297 288 277 272 271 272 276 278 278 277 277 275 274 273 273 274 273 271 270 268 268 266 265 264 262 258
294 312 317 318 321 325 333 339 345 346 350 350 350 350 350 348 342 340 336 329 320 311 303 295 289 285 282 281 279 279 280 279 280 278 274 272 271 271 270 268 268 268 269 268 268 266 260 259 259
286 304 310 314 319 319 323 329 334 339 342 343 344 345 345 345 339 328 323 325 321 314 307 299 294 291 288 282 281 282 280 280 279 275 273 270 269 270 271 270 271 271 270 269 268 267 266 261 257
282 296 301 309 313 316 317 317 324 329 335 337 339 339 338 337 342 341 334 318 309 306 302 296 292 290 291 292 291 286 280 277 273 275 278 280 282 282 279 274 273 273 273 273 272 271 267 263 263
278 289 295 302 307 307 313 313 316 322 327 331 332 335 333 331 332 334 331 328 320 311 303 297 291 288 286 284 284 284 283 282 281 276 278 277 276 276 276 277 279 279 277 274 272 272 270 270 265
276 284 291 298 299 302 306 310 310 315 321 324 325 326 327 325 324 326 327 324 323 319 312 306 298 293 289 285 281 280 280 280 281 274 278 280 282 281 281 280 278 277 276 275 272 271 271 268 265
277 281 286 291 296 299 298 305 306 311 316 318 321 322 322 321 321 321 321 321 320 320 315 307 300 294 291 287 287 284 282 279 275 275 279 282 282 282 281 281 281 280 278 275 273 272 270 269 268
Height
10981 10980 10978 10977 10976 10975 10976 10976 10977 10979 10981 10983 10985 10987 10989 10992 10996 11000 11003 11007 11009 11011 11012 11013 11014 11016 11018 11018 11019 11021 11021 11022 11024 11025 11026 11027 11027 11026 11025 11025 11025 11021 11020 11019 11020 11018 11016 11014 11010
10983 10982 10981 10980 10978 10976 10976 10976 10978 10978 10979 10980 10981 10983 10986 10988 10992 10995 10999 11002 11005 11007 11010 11010 11012 11014 11017 11017 11017 11020 11019 11020 11021 11023 11024 11025 11026 11025 11024 11025 11024 11021 11019 11018 11019 11018 11018 11015 11012
10986 10985 10984 10983 10981 10980 10978 10976 10976 10977 10978 10978 10979 10980 10983 10985 10988 10990 10993 10997 11001 11003 11007 11009 11010 11013 11015 11015 11016 11018 11019 11020 11020 11021 11023 11022 11023 11024 11024 11024 11024 11020 11019 11019 11018 11019 11018 11017 11013
10988 10988 10986 10985 10982 10980 10980 10979 10978 10976 10975 10976 10976 10977 10979 10981 10984 10986 10989 10992 10997 11000 11005 11007 11008 11010 11011 11012 11014 11016 11017 11018 11019 11020 11022 11021 11021 11022 11022 11023 11024 11019 11018 11019 11019 11019 11018 11018 11015
10990 10989 10988 10985 10981 10980 10980 10979 10977 10975 10975 10976 10975 10976 10977 10978 10980 10982 10984 10989 10992 10995 10999 11005 11003 11005 11007 11010 11011 11012 11014 11015 11016 11018 11019 11019 11020 11020 11020 11020 11020 11017 11016 11018 11019 11018 11019 11018 11016
10990 10987 10985 10984 10980 10979 10979 10979 10978 10977 10976 10974 10973 10973 10974 10975 10976 10978 10981 10984 10986 10989 10995 10999 11002 11002 11003 11006 11007 11010 11010 11012 11013 11015 11017 11018 11019 11019 11019 11018 11019 11017 11016 11017 11017 11017 11018 11018 11017
10987 10985 10984 10981 10979 10979 10978 10978 10978 10977 10975 10975 10974 10973 10972 10971 10971 10973 10975 10978 10980 10984 10987 10991 10993 10994 10997 11000 11006 11006 11007 11007 11009 11012 11014 11016 11017 11017 11018 11019 11017 11017 11016 11016 11016 11018 11017 11017 11017
10987 10985 10983 10980 10979 10978 10978 10977 10976 10975 10974 10973 10973 10971 10969 10966 10965 10965 10967 10972 10975 10978 10980 10984 10986 10987 10992 10997 10999 11001 11002 11003 11005 11008 11011 11013 11013 11015 11017 11017 11014 11013 11014 11015 11015 11017 11017 11018 11017
10985 10984 10982 10980 10978 10977 10977 10976 10976 10974 10973 10973 10971 10970 10969 10966 10962 10961 10962 10965 10968 10972 10976 10980 10980 10984 10986 10991 10993 10994 10996 11000 11001 11003 11006 11009 11011 11012 11013 11013 11013 11012 11012 11013 11013 11014 11015 11016 11016
10984 10983 10982 10980 10977 10976 10975 10975 10974 10973 10972 10971 10971 10969 10967 10965 10963 10961 10961 10962 10964 10967 10971 10973 10976 10979 10981 10985 10987 10989 10990 10992 10995 10999 11001 11003 11006 11008 11009 11010 11009 11009 11009 11009 11011 11011 11012 11013 11013
10986 10983 10981 10979 10978 10976 10974 10973 10973 10972 10971 10970 10968 10968 10967 10965 10963 10962 10960 10960 10961 10963 10966 10967 10971 10974 10976 10980 10982 10984 10985 10987 10990 10993 10995 10998 11001 11003 11005 11007 11006 11006 11007 11006 11006 11007 11008 11009 11010
10988 10986 10984 10982 10980 10978 10975 10973 10972 10971 10970 10968 10968 10967 10966 10965 10964 10963 10961 10961 10961 10961 10963 10964 10967 10969 10971 10974 10978 10980 10981 10983 10985 10987 10990 10993 10995 10997 10999 11001 11002 11002 11002 11003 11003 11004 11004 11005 11006
10988 10987 10986 10984 10982 10979 10975 10973 10971 10970 10968 10967 10966 10966 10965 10964 10964 10964 10963 10962 10962 10961 10961 10962 10965 10965 10967 10972 10975 10976 10978 10979 10981 10982 10985 10987 10989 10992 10994 10996 10997 10998 10998 10998 10999 10999 11000 11001 11002
10989 10987 10986 10984 10982 10979 10976 10974 10970 10969 10967 10965 10964 10963 10963 10963 10962 10962 10962 10962 10962 10961 10960 10960 10961 10963 10964 10967 10972 10973 10973 10974 10974 10976 10979 10982 10984 10986 10988 10990 10991 10992 10991 10992 10993 10994 10995 10997 10999
10990 10989 10986 10984 10981 10979 10976 10973 10971 10967 10965 10964 10963 10961 10960 10960 10960 10960 10960 10960 10960 10960 10959 10959 10959 10960 10960 10963 10966 10968 10968 10968 10968 10969 10971 10975 10976 10980 10981 10983 10984 10985 10986 10986 10987 10989 10991 10992 10994
10992 10991 10990 10986 10982 10978 10975 10972 10969 10967 10964 10963 10962 10959 10959 10958 10957 10957 10958 10959 10959 10959 10959 10959 10958 10958 10959 10960 10961 10962 10963 10964 10965 10967 10967 10969 10971 10973 10975 10978 10978 10979 10980 10981 10982 10983 10985 10986 10987
10994 10991 10990 10988 10984 10979 10975 10971 10969 10965 10963 10962 10960 10959 10958 10957 10957 10956 10955 10956 10958 10958 10958 10958 10958 10957 10957 10958 10958 10959 10960 10961 10962 10963 10964 10965 10966 10968 10970 10971 10973 10972 10971 10972 10972 10974 10977 10978 10978
10995 10991 10988 10986 10983 10979 10975 10971 10968 10965 10963 10961 10960 10958 10958 10956 10955 10955 10954 10953 10954 10955 10956 10956 10956 10955 10955 10955 10956 10957 10958 10960 10961 10961 10962 10962 10963 10963 10963 10965 10965 10964 10965 10964 10966 10967 10968 10969 10970
10995 10992 10989 10985 10983 10980 10976 10973 10969 10966 10963 10961 10959 10958 10956 10954 10953 10952 10952 10952 10951 10951 10953 10953 10953 10954 10953 10953 10953 10953 10954 10955 10955 10955 10955 10955 10955 10955 10956 10957 10958 10958 10958 10959 10958 10957 10957 10960 10961
10994 10992 10989 10986 10983 10981 10977 10973 10969 10966 10963 10960 10958 10955 10954 10953 10951 10949 10948 10949 10949 10949 10949 10950 10950 10950 10950 10951 10951 10951 10951 10951 10951 10951 10950 10949 10949 10948 10948 10950 10950 10950 10951 10951 10951 10951 10953 10953 10952
10992 10990 10986 10985 10983 10980 10977 10975 10971 10967 10964 10960 10957 10954 10952 10952 10950 10948 10947 10946 10946 10947 10947 10946 10946 10946 10947 10947 10947 10947 10947 10946 10946 10945 10944 10944 10942 10942 10942 10943 10942 10941 10941 10942 10943 10942 10943 10944 10942
10991 10987 10984 10980 10979 10979 10977 10973 10970 10967 10964 10961 10959 10955 10952 10950 10948 10947 10947 10945 10945 10945 10944 10944 10943 10942 10942 10942 10941 10940 10941 10940 10940 10938 10938 10938 10936 10936 10935 10934 10934 10933 10934 10933 10932 10933 10934 10934 10936
10988 10985 10981 10977 10974 10972 10972 10971 10969 10966 10964 10961 10959 10957 10953 10950 10947 10946 10945 10945 10945 10944 10943 10942 10941 10939 10937 10936 10934 10934 10935 10935 10934 10933 10932 10930 10930 10929 10929 10927 10926 10925 10926 10926 10925 10925 10924 10924 10925
10986 10984 10980 10977 10973 10968 10966 10966 10965 10965 10963 10960 10958 10956 10954 10951 10949 10947 10945 10943 10942 10940 10939 10937 10936 10935 10932 10929 10928 10927 10926 10926 10925 10924 10923 10922 10921 10919 10918 10917 10915 10913 10915 10916 10915 10915 10915 10915 10915
10983 10982 10979 10976 10973 10969 10963 10961 10961 10959 10959 10957 10955 10953 10952 10950 10948 10944 10941 10940 10938 10936 10934 10931 10929 10926 10924 10921 10919 10918 10918 10916 10915 10913 10912 10912 10911 10910 10909 10907 10907 10905 10904 10904 10903 10904 10904 10904 10904
10978 10977 10976 10973 10970 10968 10964 10960 10957 10954 10953 10950 10949 10949 10948 10946 10945 10943 10940 10936 10933 10931 10928 10924 10921 10917 10915 10914 10912 10911 10909 10907 10905 10903 10902 10901 10899 10898 10897 10896 10894 10893 10893 10891 10892 10892 10892 10893 10893
10972 10972 10971 10969 10965 10963 10960 10957 10954 10951 10948 10946 10943 10940 10937 10937 10936 10935 10934 10932 10929 10926 10924 10921 10917 10913 10909 10905 10902 10901 10900 10897 10896 10894 10891 10888 10886 10884 10883 10883 10881 10880 10878 10878 10878 10877 10877 10879 10879
10966 10965 10965 10963 10960 10958 10955 10953 10950 10947 10944 10940 10937 10934 10931 10929 10928 10926 10925 10923 10921 10918 10914 10910 10907 10904 10901 10898 10894 10891 10889 10886 10884 10882 10880 10878 10875 10873 10870 10868 10866 10864 10863 10863 10863 10862 10861 10862 10864
10957 10958 10958 10957 10955 10952 10948 10947 10944 10942 10941 10938 10934 10931 10928 10925 10922 10919 10916 10913 10911 10908 10905 10901 10897 10893 10890 10886 10883 10880 10877 10874 10871 10867 10865 10862 10860 10857 10853 10850 10850 10848 10846 10845 10845 10846 10845 10846 10845
10948 10948 10949 10949 10949 10946 10942 10940 10937 10936 10934 10932 10928 10925 10921 10917 10914 10911 10907 10903 10899 10896 10893 10889 10885 10882 10877 10873 10870 10866 10863 10860 10856 10853 10849 10846 10843 10838 10834 10830 10828 10827 10824 10824 10825 10826 10827 10828 10829